Preview of NWS' New Version of Forecast
This preview is not operational and should not be used for support decisions.

Regional Weather Roundup (RWR)

Issued by National Weather Service (NWS)

                            
000
ASUS46 KSEW 250110
RWRWA 

WASHINGTON REGIONAL WEATHER ROUNDUP
NATIONAL WEATHER SERVICE SEATTLE WA
600 PM PDT MON JUN 24 2019

NOTE:"FAIR" INDICATES FEW OR NO CLOUDS BELOW 12,000 FEET WITH NO 
SIGNIFICANT WEATHER AND/OR OBSTRUCTIONS TO VISIBILITY.

WAZ507-509-555>559-250200-
SEATTLE, TACOMA, EVERETT, AND VICINITY
  
CITY           SKY/WX    TMP DP  RH WIND       PRES   REMARKS
EVERETT        MOSUNNY   66  44  45 W7        29.99F                  
BOEING FIELD   NOT AVBL                                               
RENTON         NOT AVBL                                               
SEATAC AIRPORT NOT AVBL                                               
JBLM-MCCHORD   SUNNY     70  48  45 N6        29.97F                  
PUYALLUP       CLOUDY    70  41  35 VRB5      29.97F                  
BREMERTON      PTSUNNY   66  45  46 NE3       29.98F                  
JBLM-FT LEWIS  SUNNY     69  49  47 CALM      29.96F                  
TACOMA NARROWS MOSUNNY   66  43  43 CALM      29.97F                  
$$
 
WAZ001-503-506-510-514-515-250200-
NORTH INTERIOR
  
CITY           SKY/WX    TMP DP  RH WIND       PRES   REMARKS
BELLINGHAM     NOT AVBL                                               
FRIDAY HARBOR  MOSUNNY   64  47  53 VRB3      29.99F                  
EASTSOUND      MOSUNNY   66  46  48 S10       29.97S                  
PORT ANGELES   NOT AVBL                                               
EDIZ HOOK      FAIR      58  49  70 W14G24    30.00S                  
PORT TOWNSEND  FAIR      63  48  59 CALM      29.98F                  
NAS WHIDBEY    PTSUNNY   64  47  53 W5        30.02F                  
ARLINGTON      CLOUDY    67  47  48 SW6       29.98F                  
BURLINGTON     SUNNY     70  48  46 W6        29.98F                  
$$
 
WAZ020-022-039-040-504-511-512-250200-
SOUTHWEST INTERIOR
  
CITY           SKY/WX    TMP DP  RH WIND       PRES   REMARKS
SHELTON        MOSUNNY   70  45  40 SE7       29.94F                  
OLYMPIA        SUNNY     67  41  38 CALM      29.96F                  
CHEHALIS       FAIR      70  45  40 CALM      29.97F                  
KELSO          MOSUNNY   69  48  47 W7        29.96F                  
VANCOUVER      MOSUNNY   70  44  39 N5        29.94F                  
SCAPPOOSE, OR  MOSUNNY   69  45  41 N9        29.94F                  
PORTLAND, OR   PTSUNNY   71  45  39 NW5       29.95F                  
$$
 
WAZ021-516-517-250200-
WASHINGTON COAST
  
CITY           SKY/WX    TMP DP  RH WIND       PRES   REMARKS
FORKS          MOSUNNY   60  45  57 NW5       30.01F                  
HOQUIAM        SUNNY     61  47  59 W13       30.00F                  
ASTORIA, OR    MOSUNNY   62  48  60 NW14      29.98F                  
$$
 
WAZ019-023-024-040-567>569-250200-
CASCADE MOUNTAINS AND COLUMBIA GORGE
  
CITY           SKY/WX    TMP DP  RH WIND       PRES   REMARKS
STAMPEDE PASS  CLOUDY    50  39  66 NW8       29.99F                  
TROUTDALE, OR  MOSUNNY   70  45  40 VRB5      29.95F                  
HOOD RIVER, OR MOCLDY    70  34  26 NW9G23    29.90S                  
THE DALLES, OR MOSUNNY   75  34  22 NW17G29   29.85F                  
$$

WAZ026-027-041>044-520-521-250200-
EAST SLOPES
  
CITY           SKY/WX    TMP DP  RH WIND       PRES   REMARKS
OMAK           SUNNY     78  32  18 VRB6      29.80F                  
WENATCHEE      MOSUNNY   76  36  23 SE10      29.81F                  
ELLENSBURG     MOSUNNY   68  40  35 NW25G32   29.86F                  
YAKIMA         MOSUNNY   76  39  26 SW5       29.82F                  
SUNNYSIDE ARPT CLEAR     76  46  34 E5        29.82                   
YAKIMA TC      FAIR      76  34  21 NW10      29.81F                  
$$

WAZ028-034-035-250200-
COLUMBIA BASIN
  
CITY           SKY/WX    TMP DP  RH WIND       PRES   REMARKS
EPHRATA        SUNNY     75  34  22 S10       29.82F                  
MOSES LAKE     SUNNY     76  37  24 VRB5      29.84F                  
PASCO          NOT AVBL                                               
RICHLAND ARPT  CLEAR     80  35  19 CALM      29.81                   
HERMISTON, OR  MOSUNNY   81  24  12 NW9       29.82F                  
$$

WAZ036>038-250200-
NORTHEAST WASHINGTON
  
CITY           SKY/WX    TMP DP  RH WIND       PRES   REMARKS
SPOKANE GEIGER PTSUNNY   70  36  28 S12       29.88F                  
SPOKANE FELTS  MOSUNNY   73  36  25 W7        29.87F                  
FAIRCHILD AFB  NOT AVBL                                               
COEURDALENE,ID PTSUNNY   70  41  34 S8        29.89F                  
DEER PARK      NOT AVBL                                               
$$

WAZ029>033-250200-
SOUTHEAST WASHINGTON
  
CITY           SKY/WX    TMP DP  RH WIND       PRES   REMARKS
PULLMAN        NOT AVBL                                               
LEWISTON, ID   MOSUNNY   76  36  23 NW7       29.85F                  
WALLA WALLA    MOSUNNY   76  33  21 SW5       29.85F                  
PENDLETON, OR  SUNNY     76  30  18 W8        29.85F                  
$$